sat.trackr.live / text

‹ back to catalog

ONEWEB-0280

NORAD 48998 · 2021-060AH

PAYLOAD ACTIVE UNKNOWN

§ Identity

Operator
Country
UK
Launch date
2021-07-01
Launch site
VOSTO
Launch vehicle
Mass (kg)
RCS (m²)

Purposes: comms

External: N2YO · Heavens-Above · Gunter

§ Orbital elements

Epoch: 2026-05-24T22:59:06.813600Z

Period
109.37 min
Inclination
87.9105°
Eccentricity
0.0001705
Mean motion
13.16597019 rev/d
Perigee alt
1,196.5 km
Apogee alt
1,199.0 km
Semi-major
7,575.9 km
B*
1.0003e-4
RAAN
233.3882°
Arg perigee
107.7093°
Mean anomaly
252.4224°
Rev number
23,650

§ Raw data

ONEWEB-02801 48998U 21060AH  26144.95771775  .00000051  00000+0  10003-3 0  99942 48998  87.9105 233.3882 0001705 107.7093 252.4224 13.16597019236508

JSON: /api/v1/satellites/48998 · /tle

For live sub-satellite position, see the globe view (requires WebGL).

§ Visibility from observer

Set your observer location to see the next 7 days of passes ≥ 10°. The values pass through the URL so the page stays shareable.

No JS? Fill the form by hand. The geolocation button needs JavaScript.